Regional Weather Roundup
Issued by NWS

Home | Current Version | Previous Version | Text Only | Print | Product List | Glossary On
Versions: 1 2 3 4 5 6 7 8 9 10 11 12 13 14 15 16 17 18 19 20 21 22 23 24 25 26 27 28 29 30 31 32 33 34 35 36 37 38 39 40 41 42 43 44 45 46 47 48 49 50
000
ASPQ40 PGUM 250212
RWRPQ
WEATHER ROUNDUP FOR THE MARIANAS AND MICRONESIA
NATIONAL WEATHER SERVICE TIYAN GU
1200 PM CHST FRI JUL 25 2014

GUZ001>004-250300-
MARIANA ISLANDS-

CITY           SKY/WX    TMP DP  RH WIND       PRES   REMARKS
GUAM AIRPORT   PTSUNNY   88  79  74 E8        29.80F HX 102
ANDERSEN AFB   PTSUNNY   84  79  84 E10       29.80F HX  96
ROTA AIRPORT   MOSUNNY   86  77  74 E10G18    29.84R HX  97
TINIAN AP      PTSUNNY   81  77  89 E8        29.80F
SAIPAN AP      PTSUNNY   82  79  89 E14       29.82S HX  93

$$

PMZ161-250300-
REPUBLIC OF PALAU-

CITY           SKY/WX    TMP DP  RH WIND       PRES   REMARKS
KOROR AP       CLOUDY    84  82  94 NE7       29.71S HX 101
KOROR WSO      SHOWER    82  79  89 NW6       29.72R HX  93

$$

PMZ171>174-250300-
FEDERATED STATES OF MICRONESIA-

CITY           SKY/WX    TMP DP  RH WIND       PRES   REMARKS
YAP AIRPORT    PTSUNNY   86  79  79 SE12      29.73F HX  99
CHUUK AP       CLOUDY    86  82  89 SW12      29.82S HX 105
POHNPEI AP     CLOUDY    88  77  70 W7        29.80S HX 100
POHNPEI WSO    CLOUDY    88  75  66 SW8       29.83F HX  97
KOSRAE AP      NOT AVBL

$$

PMZ181-250300-
REPUBLIC OF THE MARSHALL ISLANDS-

CITY           SKY/WX    TMP DP  RH WIND       PRES   REMARKS
KWAJALEIN AP   NOT AVBL
MAJURO AP      NOT AVBL
MAJURO WSO     LGT RAIN  79  77  94 E12       29.75F

$$



USA.gov is the U.S. government's official web portal to all federal, state and local government web resources and services.